Tracking 19490 objects as of 24-Jan-2019
HD Live streaming from Space Station
objects crossing your sky now

FENGYUN 1C DEB

Track FENGYUN 1C DEB now!
10-day predictions


NORAD ID: 30411
Int'l Code: 1999-025AEA
Perigee: 817.1 km
Apogee: 1,030.8 km
Inclination: 98.5 °
Period: 103.3 minutes
Semi major axis: 7294 km
RCS: 0.03 m2 (small)
Launch date: May 10, 1999
Source: People's Republic of China (PRC)
Launch site: Taiyaun Space Center, China (TSC)

Note: This is SATELLITE DEBRIS
aabbcc
Your satellite tracking list
Your tracking list is empty




NASA's NSSDC Master Catalog

Two Line Element Set (TLE):
1 30411U 99025AEA 19023.59298575 +.00000204 +00000-0 +17117-3 0  9995
2 30411 098.5488 075.8227 0146479 282.9039 075.5797 13.93385112608547
Source of the keplerian elements: AFSPC